Weather History for Hailey, ID

Change the Weather History Date:

Monday, January 21, 2013

  Actual Average Record
Temperature  
Mean Temperature 16 °F -  
Max Temperature 28 °F 34 °F 50 °F (1999)
Min Temperature 5 °F 14 °F 0 °F (2004)
Degree Days  
Heating Degree Days 48    
Moisture  
Dew Point 9 °F    
Average Humidity 83    
Maximum Humidity 92    
Minimum Humidity 64    
Precipitation  
Precipitation 0.00 in - - ()
Sea Level Pressure  
Sea Level Pressure 30.35 in    
Wind  
Wind Speed 3 mph (NNW)    
Max Wind Speed 12 mph    
Max Gust Speed -    
Visibility 10 miles    
Events      
Averages and records for this station are not official NWS values.
T = Trace of Precipitation, MM = Missing Value Source: NWS Daily Summary

Daily Weather History Graph

Daily Weather History Graph

Search for Another Location

Airport:

Trip Planner

Search our weather history database for the weather conditions in past years. The results will help you decide how hot, cold, wet, or windy it might be!

Date:

Astronomy

Jan. 21, 2013 Rise Set
Actual Time 8:03 AM MST 5:34 PM MST
Civil Twilight 7:31 AM MST 6:05 PM MST
Nautical Twilight 6:56 AM MST 6:40 PM MST
Astronomical Twilight 6:22 AM MST 7:14 PM MST
Moon 1:16 PM MST (1/21) 3:35 AM MST (1/21)
Length of Visible Light 10h 33m
Length of Day
9h 31m
Waxing Gibbous, 75% of the Moon is Illuminated
Jan 21
Waxing Gibbous
Jan 26
Full
Feb 3
Last Quarter
Feb 10
New
Feb 17
First Quarter

Hourly Weather History & Observations

Time (MST) Temp. Windchill Dew Point Humidity Pressure Visibility Wind Dir Wind Speed Gust Speed Precip Events Conditions
12:15 AM 12.2 °F 6.1 °F 8.6 °F 85% 30.39 in 10.0 mi NNE 3.5 mph - N/A   Clear
12:35 AM 10.4 °F - 6.8 °F 85% 30.39 in 10.0 mi Calm Calm - N/A   Clear
12:55 AM 5.0 °F - 3.2 °F 92% 30.39 in 10.0 mi Calm Calm - N/A   Clear
1:15 AM 8.6 °F - 5.0 °F 85% 30.39 in 10.0 mi Calm Calm - N/A   Clear
1:35 AM 10.4 °F - 8.6 °F 92% 30.40 in 10.0 mi Calm Calm - N/A   Clear
1:55 AM 6.8 °F - 5.0 °F 92% 30.40 in 10.0 mi Calm Calm - N/A   Clear
2:15 AM 8.6 °F 0.1 °F 5.0 °F 85% 30.39 in 10.0 mi NNW 4.6 mph - N/A   Clear
2:35 AM 6.8 °F - 3.2 °F 85% 30.39 in 10.0 mi Calm Calm - N/A   Clear
2:55 AM 6.8 °F -4.8 °F 3.2 °F 85% 30.39 in 10.0 mi NNW 6.9 mph - N/A   Clear
3:15 AM 6.8 °F -8.6 °F 5.0 °F 92% 30.38 in 10.0 mi NNW 11.5 mph - N/A   Clear
3:35 AM 8.6 °F 0.1 °F 5.0 °F 85% 30.37 in 10.0 mi North 4.6 mph - N/A   Clear
3:55 AM 10.4 °F 0.8 °F 8.6 °F 92% 30.36 in 10.0 mi North 5.8 mph - N/A   Clear
4:15 AM 8.6 °F - 3.2 °F 79% 30.36 in 10.0 mi Calm Calm - N/A   Clear
4:55 AM 6.8 °F - 3.2 °F 85% 30.37 in 10.0 mi Calm Calm - N/A   Clear
5:15 AM 6.8 °F - 5.0 °F 92% 30.37 in 10.0 mi Calm Calm - N/A   Clear
5:35 AM 8.6 °F - 5.0 °F 85% 30.38 in 10.0 mi Calm Calm - N/A   Clear
5:55 AM 6.8 °F -0.1 °F 3.2 °F 85% 30.38 in 10.0 mi North 3.5 mph - N/A   Clear
6:47 AM 8.6 °F -4.7 °F 5.0 °F 85% 30.37 in 10.0 mi WNW 9.2 mph - N/A   Clear
7:47 AM 10.4 °F 0.8 °F 6.8 °F 85% 30.36 in 10.0 mi NNW 5.8 mph - N/A   Clear
8:47 AM 8.6 °F -2.6 °F 5.0 °F 85% 30.38 in 10.0 mi NW 6.9 mph - N/A   Clear
9:47 AM 12.2 °F 2.9 °F 8.6 °F 85% 30.39 in 10.0 mi NW 5.8 mph - N/A   Clear
10:48 AM 19.4 °F 11.5 °F 12.2 °F 74% 30.39 in 10.0 mi NW 5.8 mph - N/A   Partly Cloudy
11:47 AM 24.8 °F - 14.0 °F 64% 30.38 in 10.0 mi Calm Calm - N/A   Clear
12:47 PM 26.6 °F 20.0 °F 17.6 °F 69% 30.35 in 10.0 mi ESE 5.8 mph - N/A   Partly Cloudy
1:47 PM 28.4 °F 22.2 °F 17.6 °F 64% 30.32 in 10.0 mi ESE 5.8 mph - N/A   Clear
2:47 PM 26.6 °F 17.5 °F 17.6 °F 69% 30.32 in 10.0 mi ESE 9.2 mph - N/A   Clear
3:47 PM 26.6 °F 21.2 °F 15.8 °F 64% 30.31 in 10.0 mi SE 4.6 mph - N/A   Clear
4:47 PM 24.8 °F - 15.8 °F 69% 30.30 in 10.0 mi Calm Calm - N/A   Clear
5:47 PM 21.2 °F - 14.0 °F 74% 30.29 in 10.0 mi Calm Calm - N/A   Clear
6:47 PM 19.4 °F 12.8 °F 12.2 °F 74% 30.29 in 10.0 mi WNW 4.6 mph - N/A   Clear
7:47 PM 14.0 °F 5.1 °F 10.4 °F 86% 30.29 in 10.0 mi NW 5.8 mph - N/A   Clear
8:47 PM 12.2 °F 2.9 °F 10.4 °F 92% 30.30 in 10.0 mi NW 5.8 mph - N/A   Clear
9:47 PM 10.4 °F -2.4 °F 8.6 °F 92% 30.29 in 10.0 mi NW 9.2 mph - N/A   Clear
10:15 PM 12.2 °F 4.3 °F 8.6 °F 85% 30.30 in 10.0 mi North 4.6 mph - N/A   Clear
10:47 PM 12.2 °F 2.9 °F 10.4 °F 92% 30.30 in 10.0 mi NW 5.8 mph - N/A   Clear
10:55 PM 14.0 °F - 10.4 °F 86% 30.31 in 10.0 mi Calm Calm - N/A   Clear
11:15 PM 12.2 °F - 10.4 °F 92% 30.32 in 10.0 mi Calm Calm - N/A   Clear
11:35 PM 12.2 °F 4.3 °F 10.4 °F 92% 30.32 in 10.0 mi NW 4.6 mph - N/A   Clear
11:55 PM 10.4 °F 2.2 °F 8.6 °F 92% 30.32 in 10.0 mi NNW 4.6 mph - N/A   Clear